Regional Weather Roundup
Issued by NWS

Home | Current Version | Previous Version | Graphics & Text | Print | Product List | Glossary On
Versions: 1 2 3 4 5 6 7 8 9 10 11 12 13 14 15 16 17 18 19 20 21 22 23 24 25 26 27 28 29 30 31 32 33 34 35 36 37 38 39 40 41 42 43 44 45 46 47 48 49 50
419
ASUS45 KCYS 232210
RWRWY

WYOMING REGIONAL WEATHER ROUNDUP
NATIONAL WEATHER SERVICE CHEYENNE WY
400 PM MDT MON APR 23 2018

NOTE:  "FAIR" INDICATES FEW OR NO CLOUDS BELOW 12,000 FEET
WITH NO SIGNIFICANT WEATHER AND/OR OBSTRUCTIONS TO VISIBILITY.

WYZ001-232300-
YELLOWSTONE NATIONAL PARK

CITY           SKY/WX    TMP DP  RH WIND       PRES   REMARKS
LK YELLOWSTONE   N/A     34  25  69 MISG      30.27R
W YELLOWSTONE  NOT AVBL

$$
WYZ002>013-054>058-071-098>099-232300-
NORTHERN WYOMING

CITY           SKY/WX    TMP DP  RH WIND       PRES   REMARKS
JACKSON        PTSUNNY   49  28  44 NW14      30.18S
CODY           CLOUDY    36  30  79 N17G26    30.36R WCI  26
GREYBULL       CLOUDY    42  36  79 NW21      30.26R
WORLAND        CLOUDY    39  35  86 NW22G28   30.27R WCI  29
SHERIDAN       MIX PCPN  37  34  89 NW28G35   30.32R WCI  25
BUFFALO        CLOUDY    34  33  96 N35G44    30.23R WCI  19
GILLETTE       LGT SNOW  34  33  96 NW26G33   30.18R FOG     WCI  21
HULETT         RAIN      39  36  87 W23G37    30.13R WCI  29
NEWCASTLE      LGT SNOW  37  36  93 N22G30    30.13R WCI  27

$$
WYZ014>020-022>026-101>103-232300-
CENTRAL WYOMING

CITY           SKY/WX    TMP DP  RH WIND       PRES   REMARKS
BIG PINEY      PTSUNNY   49  19  30 N20G29    30.17R
PINEDALE       FAIR      48  21  34 W21G28    30.17S
DUBOIS         FAIR      46  21  36 W7G20     30.14S
LANDER         CLOUDY    41  31  67 NE15      30.21R
RIVERTON       CLOUDY    39  28  64 N26G39    30.20R WCI  28
CASPER         CLOUDY    42  36  79 N25G31    30.16R
DOUGLAS        NOT AVBL

$$
WYZ021-027>030-104>119-232300-
SOUTHERN WYOMING

CITY           SKY/WX    TMP DP  RH WIND       PRES   REMARKS
EVANSTON       FAIR      54  18  24 W26G37    30.18S
KEMMERER       FAIR      52  18  25 W16G31    30.18S
FORT BRIDGER   FAIR      57  10  15 W23G36    30.20R
ROCK SPRINGS   FAIR      59  17  19 W17G36    30.11S
DIXON          MOCLDY    55  38  52 N12G18    30.12F
RAWLINS        CLOUDY    57  20  23 W22G28    30.10F
SARATOGA       CLOUDY    59  28  31 NW22      30.11R
LARAMIE        PTSUNNY   59  34  39 N23G31    30.06R
CHEYENNE       LGT RAIN  62  38  40 S10G22    30.03F
TORRINGTON     PTSUNNY   67  43  41 S16       29.97S
PINE BLUFFS    FAIR      64  34  32 SE10G21   30.01F

$$




USA.gov is the U.S. government's official web portal to all federal, state and local government web resources and services.